User: anonymous   Login
Location: Brno
(49.2000°N, 16.6330°E)
Time: 18:49:37
(UTC+02:00)
Language:

NOSS 3-4 (A) - Orbit

View from above orbital plane
View from above orbital plane
View from above satellite
View from above satellite

Ground track
Ground track

The orbit data is extracted from the following two-line orbital elements,

1 31701U 07027A   16235.82147564 0.00000000  00000-0  00000-0 0    05
2 31701  63.4039 123.9402 0165000  25.9922 334.0077 13.40710828    09
Epoch (UTC): 22 August 2016 19:42:55
Eccentricity: 0.0165000
inclination: 63.4039°
perigee height: 983 km
apogee height: 1230 km
right ascension of ascending node: 123.9402°
argument of perigee: 25.9922°
revolutions per day: 13.40710828
mean anomaly at epoch: 334.0077°
orbit number at epoch: 0

The dashed part of the orbit path shows where the satellite is in the earth's shadow,  

DLR